Date String (YYYY-MM-DD hh:mm:ss) UTC,Instrument flags,Ambient pressure (hPa),Sample flow (lpm),Bypass flow (lpm),Sample temperature (°C),Ambient temperature (°C),ASC tube jacket temperature (°C),LED temperature (°C),Box temperature (°C),Sample RH (%),Span deviation,Mass concentration (μg/m³),Mass concentration (μg/m³),Mass concentration (μg/m³)
DateTimeUTC,F1_M11,P_M11,Q1_M11,Q2_M11,T1_M11,T2_M11,T3_M11,T4_M11,T5_M11,U1_M11,ZSPAN_M11,X0_M11,X2_M11,X1_M11
2021-11-08 14:00:00,,0831.5,5.00,0.00,26.9,25.9,00.0,35.9,28.6,14.8,0000.0,0009.11,0003.46,0002.46
2021-11-08 14:01:00,,0831.4,4.99,0.00,26.9,25.9,00.0,35.9,28.6,14.9,0000.0,0009.39,0003.45,0002.44
2021-11-08 14:02:00,,0831.4,5.00,0.00,26.9,25.9,00.0,35.9,28.6,15.0,0000.0,0009.33,0003.45,0002.43
2021-11-08 14:03:00,,0831.5,5.00,0.00,26.8,25.9,00.0,35.9,28.6,15.0,0000.0,0009.22,0003.45,0002.42
2021-11-08 14:04:00,,0831.6,5.01,0.00,26.8,25.9,00.0,35.9,28.6,15.0,0000.0,0009.31,0003.45,0002.42
2021-11-08 14:05:00,,0831.6,4.99,0.00,26.8,25.8,00.0,35.9,28.5,15.0,0000.0,0009.60,0003.47,0002.43
2021-11-08 14:06:00,,0831.5,5.01,0.00,26.8,25.8,00.0,35.9,28.5,15.0,0000.0,0010.25,0003.51,0002.46
2021-11-08 14:07:00,,0831.6,5.00,0.00,26.8,25.8,00.0,35.9,28.4,15.0,0000.0,0009.75,0003.51,0002.46
2021-11-08 14:08:00,,0831.7,5.01,0.00,26.7,25.8,00.0,35.9,28.4,15.0,0000.0,0009.72,0003.52,0002.47
2021-11-08 14:09:00,,0831.7,5.00,0.00,26.7,25.8,00.0,35.8,28.4,15.0,0000.0,0009.80,0003.53,0002.46
2021-11-08 14:10:00,,0831.7,5.01,0.00,26.7,25.7,00.0,35.8,28.4,15.0,0000.0,0010.43,0003.55,0002.47
2021-11-08 14:11:00,,0831.7,4.99,0.00,26.7,25.7,00.0,35.8,28.4,15.1,0000.0,0010.37,0003.53,0002.48
2021-11-08 14:12:00,,0831.7,4.99,0.00,26.7,25.7,00.0,35.8,28.4,15.1,0000.0,0009.94,0003.51,0002.49
2021-11-08 14:13:00,,0831.7,5.01,0.00,26.6,25.6,00.0,35.8,28.3,15.1,0000.0,0011.21,0003.51,0002.50
2021-11-08 14:14:00,,0831.7,4.99,0.00,26.6,25.6,00.0,35.8,28.3,15.1,0000.0,0011.68,0003.51,0002.50
2021-11-08 14:15:00,,0831.7,5.01,0.00,26.6,25.6,00.0,35.7,28.3,15.1,0000.0,0011.35,0003.52,0002.52
2021-11-08 14:16:00,,0831.7,5.00,0.00,26.6,25.6,00.0,35.7,28.3,15.1,0000.0,0011.05,0003.56,0002.53
2021-11-08 14:17:00,,0831.7,4.99,0.00,26.6,25.6,00.0,35.7,28.3,15.1,0000.0,0010.45,0003.55,0002.53
2021-11-08 14:18:00,,0831.8,4.99,0.00,26.6,25.6,00.0,35.7,28.4,15.1,0000.0,0010.38,0003.53,0002.52
2021-11-08 14:19:00,,0831.7,5.00,0.00,26.6,25.6,00.0,35.7,28.3,15.2,0000.0,0010.37,0003.49,0002.50
2021-11-08 14:20:00,,0831.8,5.00,0.00,26.6,25.6,00.0,35.7,28.3,15.2,0000.0,0010.51,0003.48,0002.49
2021-11-08 14:21:00,,0831.9,5.00,0.00,26.5,25.6,00.0,35.7,28.3,15.2,0000.0,0009.87,0003.46,0002.48
2021-11-08 14:22:00,,0831.9,4.99,0.00,26.5,25.5,00.0,35.7,28.3,15.2,0000.0,0010.16,0003.43,0002.47
2021-11-08 14:23:00,,0832.0,5.00,0.00,26.5,25.6,00.0,35.6,28.3,15.3,0000.0,0010.57,0003.45,0002.46
2021-11-08 14:24:00,,0831.9,5.01,0.00,26.5,25.6,00.0,35.6,28.3,15.3,0000.0,0009.72,0003.47,0002.45
2021-11-08 14:25:00,,0832.0,5.00,0.00,26.5,25.6,00.0,35.6,28.3,15.3,0000.0,0008.89,0003.46,0002.44
2021-11-08 14:26:00,,0832.1,5.00,0.00,26.5,25.7,00.0,35.6,28.3,15.3,0000.0,0008.93,0003.47,0002.45
2021-11-08 14:27:00,,0832.2,5.01,0.00,26.6,25.7,00.0,35.6,28.4,15.3,0000.0,0009.04,0003.46,0002.45
2021-11-08 14:28:00,,0832.1,5.00,0.00,26.6,25.7,00.0,35.6,28.4,15.3,0000.0,0008.85,0003.44,0002.46
2021-11-08 14:29:00,,0832.1,4.99,0.00,26.6,25.7,00.0,35.6,28.4,15.3,0000.0,0008.88,0003.45,0002.48
2021-11-08 14:30:00,,0832.1,4.99,0.00,26.6,25.7,00.0,35.6,28.4,15.3,0000.0,0008.90,0003.48,0002.51
2021-11-08 14:31:00,,0832.1,5.00,0.00,26.6,25.7,00.0,35.6,28.4,15.3,0000.0,0009.38,0003.50,0002.53
2021-11-08 14:32:00,,0832.1,5.00,0.00,26.6,25.8,00.0,35.6,28.4,15.3,0000.0,0009.88,0003.52,0002.53
2021-11-08 14:33:00,,0832.1,5.01,0.00,26.6,25.8,00.0,35.6,28.4,15.3,0000.0,0009.86,0003.55,0002.55
2021-11-08 14:34:00,,0832.1,5.01,0.00,26.7,25.8,00.0,35.6,28.5,15.3,0000.0,0009.53,0003.56,0002.59
2021-11-08 14:35:00,,0832.1,4.99,0.00,26.7,25.8,00.0,35.6,28.5,15.2,0000.0,0009.74,0003.57,0002.61
2021-11-08 14:36:00,,0832.1,5.01,0.00,26.7,25.9,00.0,35.7,28.5,15.2,0000.0,0010.01,0003.59,0002.65
2021-11-08 14:37:00,,0832.1,5.01,0.00,26.7,25.9,00.0,35.7,28.5,15.3,0000.0,0009.61,0003.61,0002.67
2021-11-08 14:38:00,,0832.2,5.00,0.00,26.7,25.9,00.0,35.7,28.5,15.4,0000.0,0009.57,0003.64,0002.67
2021-11-08 14:39:00,,0832.2,5.00,0.00,26.7,25.9,00.0,35.7,28.6,15.4,0000.0,0009.52,0003.66,0002.69
2021-11-08 14:40:00,,0832.3,5.01,0.00,26.7,25.9,00.0,35.7,28.6,15.3,0000.0,0009.42,0003.64,0002.70
2021-11-08 14:41:00,,0832.3,5.01,0.00,26.8,25.9,00.0,35.7,28.6,15.2,0000.0,0009.56,0003.64,0002.71
2021-11-08 14:42:00,,0832.3,5.00,0.00,26.8,26.0,00.0,35.7,28.6,15.2,0000.0,0009.38,0003.64,0002.74
2021-11-08 14:43:00,,0832.2,5.01,0.00,26.8,26.0,00.0,35.7,28.6,15.2,0000.0,0009.69,0003.66,0002.78
2021-11-08 14:44:00,,0832.2,4.99,0.00,26.8,26.0,00.0,35.7,28.6,15.3,0000.0,0009.77,0003.67,0002.81
2021-11-08 14:45:00,,0832.3,4.99,0.00,26.8,26.0,00.0,35.7,28.7,15.3,0000.0,0010.27,0003.67,0002.81
2021-11-08 14:46:00,,0832.3,4.99,0.00,26.9,26.0,00.0,35.8,28.7,15.2,0000.0,0010.01,0003.69,0002.84
2021-11-08 14:47:00,,0832.3,5.00,0.00,26.9,26.0,00.0,35.8,28.7,15.2,0000.0,0009.77,0003.72,0002.85
2021-11-08 14:48:00,,0832.3,5.01,0.00,26.9,26.1,00.0,35.8,28.7,15.3,0000.0,0009.92,0003.75,0002.86
2021-11-08 14:49:00,,0832.3,4.98,0.00,26.9,26.1,00.0,35.8,28.7,15.2,0000.0,0010.21,0003.75,0002.89
2021-11-08 14:50:00,,0832.3,5.01,0.00,26.9,26.1,00.0,35.8,28.7,15.1,0000.0,0010.96,0003.78,0002.92
2021-11-08 14:51:00,,0832.5,5.00,0.00,26.9,26.1,00.0,35.8,28.7,15.2,0000.0,0011.04,0003.79,0002.94
2021-11-08 14:52:00,,0832.4,5.00,0.00,26.9,26.1,00.0,35.8,28.8,15.2,0000.0,0010.98,0003.79,0002.94
2021-11-08 14:53:00,,0832.4,5.00,0.00,27.0,26.1,00.0,35.9,28.8,15.1,0000.0,0011.23,0003.83,0002.96
2021-11-08 14:54:00,,0832.3,5.01,0.00,27.0,26.1,00.0,35.9,28.8,15.1,0000.0,0011.08,0003.87,0002.96
2021-11-08 14:55:00,,0832.3,5.01,0.00,27.0,26.2,00.0,35.9,28.8,15.1,0000.0,0011.29,0003.88,0002.95
2021-11-08 14:56:00,,0832.3,4.98,0.00,27.0,26.2,00.0,35.9,28.9,15.1,0000.0,0011.23,0003.91,0002.95
2021-11-08 14:57:00,,0832.3,5.02,0.00,27.0,26.2,00.0,35.9,28.9,15.2,0000.0,0011.33,0003.93,0002.93
2021-11-08 14:58:00,,0832.4,5.00,0.00,27.0,26.2,00.0,35.9,28.9,15.2,0000.0,0011.17,0003.90,0002.92
2021-11-08 14:59:00,,0832.4,5.01,0.00,27.0,26.2,00.0,35.9,28.9,15.1,0000.0,0011.16,0003.87,0002.91
